User: anonymous   Login
Location: Los Gatos B&B
(42.6926°N, 77.0646°W)
Time: 23:12:49
(UTC-05:00)
Language:

Cosmos 2263 Rocket - Orbit

View from above orbital plane
View from above orbital plane
View from above satellite
View from above satellite

Ground track
Ground track

The orbit data is extracted from the following two-line orbital elements,

1 22803U 93059B   15027.17406396 -.00000081  00000-0 -16445-4 0  4745
2 22803 070.9910 286.8749 0019685 274.2008 085.6866 14.16699375104778
Epoch (UTC): 27 January 2015 04:10:39
Eccentricity: 0.0019685
inclination: 70.9910°
perigee height: 822 km
apogee height: 851 km
right ascension of ascending node: 286.8749°
argument of perigee: 274.2008°
revolutions per day: 14.16699375
mean anomaly at epoch: 85.6866°
orbit number at epoch: 10477

The dashed part of the orbit path shows where the satellite is in the earth's shadow,  

DLR